Weather History for KGKJ - March, 2013

Change the Weather History Date:

Sunday, March 31, 2013

  Actual Average Record
Temperature  
Mean Temperature 46 °F -  
Max Temperature 51 °F 53 °F 80 °F (1977)
Min Temperature 41 °F 30 °F 12 °F (1964)
Degree Days  
Heating Degree Days 20    
Moisture  
Dew Point 36 °F    
Average Humidity 73    
Maximum Humidity 93    
Minimum Humidity 40    
Precipitation  
Precipitation 0.07 in - - ()
Sea Level Pressure  
Sea Level Pressure 29.75 in    
Wind  
Wind Speed 4 mph (SSW)    
Max Wind Speed 12 mph    
Max Gust Speed 23 mph    
Visibility 7 miles    
Events Rain    
Averages and records for this station are not official NWS values.
T = Trace of Precipitation, MM = Missing Value Source: NWS Daily Summary

Daily Weather History Graph

Daily Weather History Graph

Search for Another Location

Airport or City:

Trip Planner

Search our weather history database for the weather conditions in past years. The results will help you decide how hot, cold, wet, or windy it might be!

Date:

Astronomy

Mar. 31, 2013 Rise Set
Actual Time 7:05 AM EDT 7:45 PM EDT
Civil Twilight 6:37 AM EDT 8:13 PM EDT
Nautical Twilight 6:04 AM EDT 8:46 PM EDT
Astronomical Twilight 5:29 AM EDT 9:20 PM EDT
Moon No Moon Rise 9:48 AM EDT (3/31)
Length of Visible Light 13h 36m
Length of Day
12h 40m
Waning Gibbous, 78% of the Moon is Illuminated
Mar 31
Waning Gibbous
Apr 3
Last Quarter
Apr 10
New
Apr 18
First Quarter
Apr 25
Full

Hourly Weather History & Observations

Time (EDT) Temp. Windchill Dew Point Humidity Pressure Visibility Wind Dir Wind Speed Gust Speed Precip Events Conditions
12:53 AM 43.0 °F - 19.9 °F 40% 30.00 in 10.0 mi Calm Calm - N/A   Clear
1:53 AM 43.0 °F 41.3 °F 19.9 °F 40% 29.97 in 10.0 mi Variable 3.5 mph - N/A   Clear
2:53 AM 42.1 °F - 19.9 °F 41% 29.95 in 10.0 mi Calm Calm - N/A   Clear
3:53 AM 41.0 °F - 19.9 °F 43% 29.91 in 10.0 mi Calm Calm - N/A   Clear
4:53 AM 41.0 °F 39.0 °F 19.9 °F 43% 29.88 in 10.0 mi Variable 3.5 mph - N/A   Clear
5:53 AM 41.0 °F - 21.0 °F 45% 29.86 in 10.0 mi Calm Calm - N/A   Clear
6:53 AM 41.0 °F - 21.0 °F 45% 29.85 in 10.0 mi Calm Calm - N/A   Clear
7:53 AM 41.0 °F - 21.9 °F 47% 29.83 in 10.0 mi Calm Calm - N/A   Clear
8:53 AM 43.0 °F 40.3 °F 21.9 °F 43% 29.81 in 10.0 mi Variable 4.6 mph - N/A   Partly Cloudy
9:53 AM 46.9 °F - 25.0 °F 42% 29.78 in 10.0 mi Variable 4.6 mph - N/A   Scattered Clouds
10:53 AM 50.0 °F - 27.0 °F 41% 29.77 in 10.0 mi SSW 10.4 mph - N/A   Mostly Cloudy
11:53 AM 50.0 °F - 32.0 °F 50% 29.76 in 10.0 mi SW 11.5 mph 23.0 mph N/A   Overcast
12:53 PM 48.9 °F - 32.0 °F 52% 29.75 in 10.0 mi South 9.2 mph 17.3 mph N/A   Overcast
1:53 PM 46.9 °F - 39.0 °F 74% 29.74 in 9.0 mi South 8.1 mph - 0.00 in Rain Light Rain
2:23 PM 46.4 °F 42.4 °F 41.0 °F 81% 29.72 in 8.0 mi South 8.1 mph - 0.00 in Rain Light Rain
2:41 PM 46.4 °F 42.4 °F 41.0 °F 81% 29.71 in 5.0 mi SSW 8.1 mph - 0.01 in Rain Light Rain
2:53 PM 46.0 °F 42.5 °F 41.0 °F 83% 29.73 in 2.5 mi SSW 6.9 mph - 0.01 in Rain Light Rain
3:00 PM 46.4 °F 42.9 °F 42.8 °F 87% 29.71 in 3.0 mi South 6.9 mph - 0.01 in Rain Light Rain
3:10 PM 46.4 °F 43.5 °F 42.8 °F 87% 29.70 in 2.5 mi South 5.8 mph - 0.01 in Rain Light Rain
3:19 PM 46.4 °F 43.5 °F 42.8 °F 87% 29.70 in 2.5 mi SSW 5.8 mph - 0.02 in Rain Light Rain
3:26 PM 46.4 °F 42.9 °F 42.8 °F 87% 29.70 in 4.0 mi SSW 6.9 mph - 0.02 in Rain Light Rain
3:53 PM 45.0 °F 41.2 °F 42.1 °F 90% 29.72 in 3.0 mi SSW 6.9 mph - 0.04 in Rain Light Rain
4:01 PM 46.4 °F 43.5 °F 42.8 °F 87% 29.69 in 1.8 mi South 5.8 mph - 0.00 in Rain Light Rain
4:12 PM 46.4 °F 42.4 °F 42.8 °F 87% 29.69 in 3.0 mi South 8.1 mph - 0.01 in Rain Light Rain
4:20 PM 46.4 °F 43.5 °F 42.8 °F 87% 29.68 in 4.0 mi South 5.8 mph - 0.01 in Rain Light Rain
4:38 PM 46.4 °F 43.5 °F 42.8 °F 87% 29.67 in 5.0 mi South 5.8 mph - 0.02 in Rain Light Rain
4:53 PM 46.0 °F 43.1 °F 43.0 °F 89% 29.69 in 7.0 mi SSW 5.8 mph - 0.02 in Rain Light Rain
5:13 PM 46.4 °F 44.3 °F 42.8 °F 87% 29.67 in 8.0 mi South 4.6 mph - 0.00 in   Overcast
5:27 PM 46.4 °F 43.5 °F 42.8 °F 87% 29.66 in 6.0 mi South 5.8 mph - 0.00 in   Overcast
5:53 PM 46.0 °F 41.9 °F 42.1 °F 86% 29.68 in 6.0 mi South 8.1 mph - 0.00 in Rain Light Rain
6:40 PM 46.4 °F 41.9 °F 42.8 °F 87% 29.67 in 4.0 mi SSW 9.2 mph - 0.00 in   Overcast
6:53 PM 45.0 °F 41.2 °F 43.0 °F 93% 29.69 in 5.0 mi SSW 6.9 mph - 0.00 in   Overcast
7:19 PM 44.6 °F 40.2 °F 42.8 °F 93% 29.67 in 5.0 mi SSW 8.1 mph - N/A   Overcast
7:28 PM 44.6 °F 40.7 °F 42.8 °F 93% 29.67 in 5.0 mi SSW 6.9 mph - N/A   Overcast
7:53 PM 45.0 °F 41.2 °F 42.1 °F 90% 29.70 in 6.0 mi SSW 6.9 mph - N/A   Overcast
8:35 PM 44.6 °F 41.4 °F 42.8 °F 93% 29.68 in 6.0 mi SSW 5.8 mph - N/A   Scattered Clouds
8:53 PM 43.0 °F 38.8 °F 41.0 °F 93% 29.71 in 5.0 mi SSW 6.9 mph - N/A   Clear
9:53 PM 43.0 °F 38.8 °F 39.9 °F 89% 29.71 in 6.0 mi SSW 6.9 mph - N/A   Clear
10:53 PM 44.1 °F 40.1 °F 39.9 °F 85% 29.69 in 6.0 mi South 6.9 mph - N/A   Scattered Clouds
11:53 PM 45.0 °F 41.2 °F 39.9 °F 82% 29.68 in 5.0 mi WSW 6.9 mph - 0.00 in Rain Light Rain